Weather History for La Porte, IN

Change the Weather History Date:

Sunday, January 6, 2013

  Actual Average (KVPZ) Record (KVPZ)
Temperature  
Mean Temperature 28 °F 24 °F  
Max Temperature 33 °F 31 °F 59 °F (2008)
Min Temperature 20 °F 17 °F -16 °F (2014)
Degree Days  
Heating Degree Days 38 41  
Month to date heating degree days 246  
Since 1 July heating degree days 2648  
Cooling Degree Days 0 0  
Month to date cooling degree days 0  
Year to date cooling degree days 0  
Moisture  
Dew Point 25 °F    
Average Humidity 83    
Maximum Humidity 92    
Minimum Humidity 75    
Precipitation  
Precipitation 0.00 in 0.05 in 0.05 in (2002)
Month to date precipitation 0.33  
Year to date precipitation 0.33  
Sea Level Pressure  
Sea Level Pressure 30.09 in    
Wind  
Wind Speed 11 mph (West)    
Max Wind Speed 17 mph    
Max Gust Speed 32 mph    
Visibility 9 miles    
Events      
T = Trace of Precipitation, MM = Missing Value Source: NWS Daily Summary

Daily Weather History Graph

Daily Weather History Graph

Search for Another Location

Airport:

Trip Planner

Search our weather history database for the weather conditions in past years. The results will help you decide how hot, cold, wet, or windy it might be!

Date:

Astronomy

Jan. 06, 2013 Rise Set
Actual Time 7:13 AM CST 4:32 PM CST
Civil Twilight 6:42 AM CST 5:03 PM CST
Nautical Twilight 6:07 AM CST 5:38 PM CST
Astronomical Twilight 5:34 AM CST 6:11 PM CST
Moon 1:25 AM CST (1/6) 12:00 PM CST (1/6)
Length of Visible Light 10h 21m
Length of Day
9h 18m
Waning Crescent, 33% of the Moon is Illuminated
Jan 6
Waning Crescent
Jan 11
New
Jan 18
First Quarter
Jan 26
Full
Feb 3
Last Quarter

Hourly Weather History & Observations

Time (CST) Temp. Windchill Dew Point Humidity Pressure Visibility Wind Dir Wind Speed Gust Speed Precip Events Conditions
12:15 AM 32.9 °F 23.2 °F 30.9 °F 92% 29.98 in 10.0 mi SW 13.8 mph 19.6 mph N/A   Overcast
12:35 AM 32.9 °F 24.1 °F 30.7 °F 92% 29.97 in 10.0 mi SW 11.5 mph - N/A   Overcast
12:55 AM 32.9 °F 22.8 °F 30.6 °F 91% 29.96 in 10.0 mi SW 15.0 mph 18.4 mph N/A   Overcast
1:15 AM 33.1 °F 24.9 °F 30.2 °F 89% 29.96 in 10.0 mi SW 10.4 mph - N/A   Overcast
1:35 AM 33.1 °F 24.9 °F 30.0 °F 89% 29.96 in 10.0 mi SW 10.4 mph - N/A   Overcast
1:55 AM 33.3 °F 24.1 °F 30.0 °F 88% 29.96 in 10.0 mi SW 12.7 mph 17.3 mph N/A   Overcast
2:15 AM 33.1 °F 23.9 °F 30.0 °F 89% 29.95 in 10.0 mi SW 12.7 mph - N/A   Overcast
2:35 AM 33.1 °F 23.9 °F 30.0 °F 89% 29.95 in 10.0 mi SW 12.7 mph 16.1 mph N/A   Overcast
2:55 AM 33.3 °F 25.7 °F 30.0 °F 88% 29.95 in 10.0 mi SW 9.2 mph - N/A   Overcast
3:15 AM 33.4 °F 24.8 °F 30.2 °F 88% 29.94 in 10.0 mi SW 11.5 mph - N/A   Overcast
3:35 AM 33.8 °F 26.4 °F 30.2 °F 87% 29.93 in 10.0 mi SW 9.2 mph - N/A   Overcast
3:55 AM 33.8 °F 25.3 °F 30.2 °F 87% 29.93 in 10.0 mi WSW 11.5 mph - N/A   Overcast
4:15 AM 33.8 °F 25.8 °F 30.2 °F 87% 29.93 in 10.0 mi WSW 10.4 mph - N/A   Overcast
4:35 AM 33.8 °F 25.8 °F 30.6 °F 88% 29.92 in 10.0 mi WSW 10.4 mph - N/A   Overcast
4:55 AM 33.8 °F 25.3 °F 30.6 °F 88% 29.92 in 10.0 mi WSW 11.5 mph - N/A   Overcast
5:35 AM 33.4 °F 25.4 °F 30.9 °F 90% 29.92 in 10.0 mi WSW 10.4 mph - N/A   Overcast
5:55 AM 33.4 °F 25.4 °F 31.1 °F 91% 29.93 in 10.0 mi WSW 10.4 mph - N/A   Overcast
6:15 AM 33.3 °F 24.6 °F 31.1 °F 92% 29.93 in 10.0 mi WSW 11.5 mph 16.1 mph N/A   Overcast
6:35 AM 33.3 °F 24.1 °F 30.9 °F 91% 29.94 in 10.0 mi WSW 12.7 mph 18.4 mph N/A   Overcast
6:55 AM 33.3 °F 22.5 °F 30.2 °F 89% 29.94 in 10.0 mi West 17.3 mph 24.2 mph N/A   Overcast
7:15 AM 31.1 °F 19.7 °F 25.5 °F 80% 29.96 in 10.0 mi West 17.3 mph 32.2 mph N/A   Overcast
7:35 AM 28.9 °F 18.2 °F 21.9 °F 75% 29.96 in 10.0 mi West 13.8 mph 20.7 mph N/A   Scattered Clouds
7:55 AM 27.5 °F 18.0 °F 20.8 °F 76% 29.97 in 10.0 mi WNW 10.4 mph 17.3 mph N/A   Clear
8:15 AM 26.6 °F 15.7 °F 20.8 °F 79% 29.99 in 7.0 mi West 12.7 mph 20.7 mph N/A   Scattered Clouds
8:35 AM 26.6 °F 14.7 °F 21.2 °F 80% 29.99 in 7.0 mi West 15.0 mph - N/A   Overcast
8:55 AM 26.6 °F 15.2 °F 21.2 °F 80% 30.01 in 5.0 mi West 13.8 mph 18.4 mph N/A   Haze
9:15 AM 25.7 °F 16.4 °F 21.2 °F 83% 30.02 in 4.0 mi West 9.2 mph 16.1 mph N/A   Haze
9:35 AM 25.7 °F 14.6 °F 20.7 °F 81% 30.02 in 5.0 mi West 12.7 mph - N/A   Haze
9:55 AM 25.7 °F 14.6 °F 20.5 °F 81% 30.03 in 5.0 mi West 12.7 mph - N/A   Haze
10:15 AM 26.1 °F 16.2 °F 20.8 °F 81% 30.04 in 7.0 mi West 10.4 mph 17.3 mph N/A   Overcast
10:35 AM 26.4 °F 15.0 °F 20.8 °F 79% 30.05 in 7.0 mi West 13.8 mph 20.7 mph N/A   Overcast
10:55 AM 26.6 °F 16.2 °F 20.8 °F 79% 30.05 in 7.0 mi WNW 11.5 mph 20.7 mph N/A   Overcast
11:15 AM 26.4 °F 15.0 °F 20.7 °F 79% 30.04 in 7.0 mi West 13.8 mph 19.6 mph N/A   Overcast
11:35 AM 26.4 °F 17.3 °F 20.5 °F 78% 30.04 in 7.0 mi West 9.2 mph 16.1 mph N/A   Overcast
11:55 AM 26.6 °F 17.5 °F 20.7 °F 78% 30.05 in 7.0 mi WNW 9.2 mph 20.7 mph N/A   Overcast
12:15 PM 26.4 °F 18.0 °F 20.5 °F 78% 30.06 in 7.0 mi WNW 8.1 mph 17.3 mph N/A   Overcast
12:35 PM 26.6 °F 17.5 °F 20.7 °F 78% 30.06 in 7.0 mi WNW 9.2 mph 17.3 mph N/A   Overcast
12:55 PM 27.1 °F 20.7 °F 21.4 °F 79% 30.06 in 7.0 mi WNW 5.8 mph - N/A   Overcast
1:15 PM 27.7 °F 19.6 °F 21.9 °F 79% 30.08 in 7.0 mi WNW 8.1 mph - N/A   Overcast
1:35 PM 28.0 °F 19.3 °F 22.5 °F 80% 30.08 in 7.0 mi WNW 9.2 mph - N/A   Overcast
1:55 PM 28.4 °F 22.2 °F 22.8 °F 80% 30.09 in 7.0 mi WNW 5.8 mph - N/A   Overcast
2:15 PM 28.9 °F 21.9 °F 23.5 °F 80% 30.11 in 7.0 mi WNW 6.9 mph - N/A   Overcast
2:35 PM 29.3 °F 20.8 °F 23.9 °F 80% 30.12 in 7.0 mi WNW 9.2 mph - N/A   Overcast
2:55 PM 29.7 °F 22.8 °F 24.4 °F 81% 30.13 in 7.0 mi WNW 6.9 mph - N/A   Overcast
3:15 PM 30.0 °F 23.2 °F 24.8 °F 81% 30.14 in 7.0 mi WNW 6.9 mph - N/A   Overcast
3:35 PM 30.7 °F 24.1 °F 25.2 °F 80% 30.16 in 10.0 mi WNW 6.9 mph - N/A   Overcast
3:55 PM 31.1 °F 23.1 °F 25.7 °F 80% 30.16 in 10.0 mi NW 9.2 mph - N/A   Overcast
4:15 PM 31.5 °F 22.3 °F 26.1 °F 80% 30.17 in 10.0 mi NW 11.5 mph 17.3 mph N/A   Overcast
4:55 PM 31.5 °F 23.5 °F 26.2 °F 81% 30.19 in 10.0 mi NNW 9.2 mph - N/A   Overcast
5:15 PM 31.6 °F 24.4 °F 26.1 °F 80% 30.20 in 10.0 mi NW 8.1 mph - N/A   Overcast
5:35 PM 31.6 °F 26.0 °F 26.2 °F 80% 30.21 in 10.0 mi NW 5.8 mph - N/A   Overcast
5:55 PM 31.8 °F 27.3 °F 26.2 °F 80% 30.23 in 10.0 mi WNW 4.6 mph - N/A   Overcast
6:15 PM 32.0 °F 24.8 °F 26.1 °F 79% 30.24 in 10.0 mi NW 8.1 mph - N/A   Overcast
6:35 PM 32.0 °F 28.7 °F 25.3 °F 76% 30.26 in 10.0 mi WNW 3.5 mph - N/A   Overcast
6:55 PM 32.0 °F 28.7 °F 25.7 °F 78% 30.26 in 10.0 mi NW 3.5 mph - N/A   Overcast
7:15 PM 32.0 °F 25.6 °F 25.5 °F 77% 30.28 in 10.0 mi West 6.9 mph - N/A   Overcast
7:35 PM 31.1 °F 26.4 °F 25.3 °F 79% 30.28 in 10.0 mi WNW 4.6 mph - N/A   Overcast
7:55 PM 31.1 °F 25.4 °F 24.8 °F 77% 30.28 in 10.0 mi West 5.8 mph - N/A   Overcast
8:15 PM 30.9 °F 24.3 °F 24.4 °F 77% 30.29 in 10.0 mi West 6.9 mph - N/A   Overcast
8:35 PM 30.2 °F 23.4 °F 24.1 °F 78% 30.29 in 10.0 mi West 6.9 mph - N/A   Overcast
8:55 PM 30.0 °F 23.2 °F 24.3 °F 79% 30.31 in 10.0 mi West 6.9 mph - N/A   Overcast
9:15 PM 29.8 °F 23.0 °F 24.1 °F 79% 30.31 in 10.0 mi West 6.9 mph - N/A   Overcast
9:55 PM 27.9 °F 20.6 °F 22.6 °F 81% 30.31 in 7.0 mi West 6.9 mph - N/A   Overcast
10:15 PM 26.2 °F 20.7 °F 21.6 °F 82% 30.31 in 7.0 mi West 4.6 mph - N/A   Scattered Clouds
10:35 PM 24.3 °F 18.4 °F 20.3 °F 85% 30.31 in 7.0 mi SW 4.6 mph - N/A   Scattered Clouds
10:55 PM 22.6 °F 15.3 °F 19.6 °F 88% 30.32 in 7.0 mi SW 5.8 mph - N/A   Clear
11:35 PM 22.6 °F 16.5 °F 19.4 °F 87% 30.32 in 7.0 mi West 4.6 mph - N/A   Overcast
11:55 PM 20.3 °F 15.4 °F 18.0 °F 91% 30.32 in 5.0 mi South 3.5 mph - N/A   Overcast